When you browse on this site, cookies collect data to enhance your experience and personalize the content and advertising you see.
Visit our Privacy Policy to learn more. By continuing to use the site, you agree to this use of cookies and data.
EN

Hourly Weather Godziszewo

Today, 19 September, Saturday

Time Temperature Precipitation Wind Pressure Humidity
00:00 +12°C° 0 mm 1 mps 765 mmHg 55%
01:00 +11°C° 0 mm 1 mps 765 mmHg 56%
02:00 +11°C° 0 mm 1 mps 764 mmHg 57%
03:00 +11°C° 0 mm 1 mps 764 mmHg 58%
04:00 +11°C° 0 mm 1 mps 764 mmHg 60%
05:00 +11°C° 0 mm 1 mps 764 mmHg 60%
06:00 +11°C° 0 mm 1 mps 764 mmHg 60%
07:00 +12°C° 0 mm 2 mps 763 mmHg 61%
08:00 +14°C° 0 mm 2 mps 763 mmHg 56%
09:00 +15°C° 0 mm 2 mps 763 mmHg 50%
10:00 +17°C° 0 mm 2 mps 763 mmHg 45%
11:00 +18°C° 0 mm 2 mps 763 mmHg 41%
12:00 +20°C° 0 mm 3 mps 763 mmHg 38%
13:00 +21°C° 0 mm 3 mps 763 mmHg 34%
14:00 +21°C° 0 mm 3 mps 762 mmHg 36%
15:00 +20°C° 0 mm 3 mps 762 mmHg 38%
16:00 +20°C° 0 mm 3 mps 761 mmHg 40%
17:00 +18°C° 0 mm 3 mps 761 mmHg 44%
18:00 +17°C° 0 mm 3 mps 761 mmHg 48%
19:00 +15°C° 0 mm 2 mps 761 mmHg 52%
20:00 +15°C° 0 mm 2 mps 761 mmHg 53%
21:00 +14°C° 0 mm 2 mps 761 mmHg 53%
22:00 +14°C° 0 mm 2 mps 761 mmHg 54%
23:00 +13°C° 0 mm 2 mps 761 mmHg 55%

Tomorrow, 20 September, Sunday

Time Temperature Precipitation Wind Pressure Humidity
00:00 +12°C° 0 mm 3 mps 761 mmHg 55%
01:00 +12°C° 0 mm 3 mps 761 mmHg 56%
02:00 +11°C° 0 mm 3 mps 761 mmHg 57%
03:00 +11°C° 0 mm 3 mps 760 mmHg 58%
04:00 +11°C° 0 mm 3 mps 760 mmHg 59%
05:00 +11°C° 0 mm 3 mps 760 mmHg 60%
06:00 +11°C° 0 mm 3 mps 760 mmHg 60%
07:00 +11°C° 0 mm 3 mps 760 mmHg 61%
08:00 +13°C° 0 mm 3 mps 760 mmHg 56%
09:00 +16°C° 0 mm 3 mps 760 mmHg 52%
10:00 +19°C° 0 mm 4 mps 760 mmHg 47%
11:00 +20°C° 0 mm 4 mps 760 mmHg 45%
12:00 +21°C° 0 mm 4 mps 759 mmHg 42%
13:00 +22°C° 0 mm 4 mps 759 mmHg 40%
14:00 +22°C° 0 mm 4 mps 759 mmHg 41%
15:00 +22°C° 0 mm 3 mps 759 mmHg 43%
16:00 +22°C° 0 mm 3 mps 758 mmHg 44%
17:00 +20°C° 0 mm 3 mps 758 mmHg 50%
18:00 +18°C° 0 mm 3 mps 758 mmHg 56%
19:00 +16°C° 0 mm 3 mps 758 mmHg 61%
20:00 +16°C° 0 mm 2 mps 759 mmHg 62%
21:00 +15°C° 0 mm 2 mps 759 mmHg 63%
22:00 +14°C° 0 mm 2 mps 759 mmHg 64%
23:00 +14°C° 0 mm 2 mps 759 mmHg 67%

Day after tomorrow, 21 September, Monday

Time Temperature Precipitation Wind Pressure Humidity
00:00 +14°C° 0 mm 2 mps 759 mmHg 69%
01:00 +13°C° 0 mm 2 mps 759 mmHg 71%
02:00 +13°C° 0 mm 2 mps 758 mmHg 74%
03:00 +13°C° 0 mm 2 mps 758 mmHg 76%
04:00 +12°C° 0 mm 2 mps 758 mmHg 79%
05:00 +13°C° 0 mm 2 mps 758 mmHg 78%
06:00 +13°C° 0 mm 2 mps 758 mmHg 78%
07:00 +13°C° 0 mm 2 mps 758 mmHg 77%
08:00 +15°C° 0 mm 2 mps 758 mmHg 70%
09:00 +18°C° 0 mm 2 mps 758 mmHg 62%
10:00 +20°C° 0 mm 2 mps 758 mmHg 55%
11:00 +21°C° 0 mm 2 mps 758 mmHg 50%
12:00 +23°C° 0 mm 2 mps 758 mmHg 46%
13:00 +25°C° 0 mm 2 mps 757 mmHg 42%
14:00 +25°C° 0 mm 2 mps 757 mmHg 42%
15:00 +25°C° 0 mm 2 mps 757 mmHg 42%
16:00 +25°C° 0 mm 2 mps 756 mmHg 43%
17:00 +23°C° 0 mm 2 mps 756 mmHg 49%
18:00 +20°C° 0 mm 2 mps 756 mmHg 55%
19:00 +18°C° 0 mm 2 mps 756 mmHg 61%
20:00 +18°C° 0 mm 2 mps 756 mmHg 63%
21:00 +17°C° 0 mm 2 mps 756 mmHg 64%
22:00 +17°C° 0 mm 2 mps 756 mmHg 66%
23:00 +17°C° 0 mm 2 mps 756 mmHg 67%

22 September, Tuesday

Time Temperature Precipitation Wind Pressure Humidity
00:00 +16°C° 0 mm 2 mps 756 mmHg 68%
01:00 +16°C° 0 mm 2 mps 755 mmHg 69%
02:00 +15°C° 0 mm 2 mps 755 mmHg 70%
03:00 +15°C° 0 mm 2 mps 754 mmHg 71%
04:00 +15°C° 0 mm 2 mps 754 mmHg 72%
05:00 +15°C° 0 mm 2 mps 754 mmHg 70%
06:00 +15°C° 0 mm 2 mps 754 mmHg 68%
07:00 +16°C° 0 mm 2 mps 754 mmHg 66%
08:00 +18°C° 0 mm 2 mps 753 mmHg 59%
09:00 +20°C° 0 mm 3 mps 753 mmHg 52%
10:00 +22°C° 0 mm 3 mps 753 mmHg 45%
11:00 +25°C° 0 mm 3 mps 753 mmHg 42%
12:00 +26°C° 0 mm 3 mps 752 mmHg 40%
13:00 +27°C° 0 mm 3 mps 752 mmHg 37%
14:00 +27°C° 0 mm 3 mps 751 mmHg 39%
15:00 +27°C° 0 mm 3 mps 751 mmHg 40%
16:00 +27°C° 0 mm 3 mps 750 mmHg 42%
17:00 +25°C° 0 mm 3 mps 750 mmHg 47%
18:00 +22°C° 0 mm 3 mps 750 mmHg 53%
19:00 +20°C° 0 mm 2 mps 750 mmHg 59%
20:00 +20°C° 0 mm 2 mps 750 mmHg 61%
21:00 +19°C° 0 mm 3 mps 750 mmHg 64%
22:00 +19°C° 0 mm 3 mps 750 mmHg 66%
23:00 +18°C° 0 mm 3 mps 749 mmHg 69%

23 September, Wednesday

Time Temperature Precipitation Wind Pressure Humidity
00:00 +18°C° 0 mm 2 mps 749 mmHg 72%
01:00 +18°C° 0 mm 2 mps 749 mmHg 75%
02:00 +17°C° 0 mm 2 mps 749 mmHg 77%
03:00 +17°C° 0 mm 2 mps 748 mmHg 79%
04:00 +16°C° 0 mm 2 mps 748 mmHg 81%
05:00 +17°C° 0 mm 2 mps 748 mmHg 79%
06:00 +17°C° 0 mm 2 mps 748 mmHg 77%
07:00 +18°C° 0 mm 2 mps 748 mmHg 76%
08:00 +20°C° 0 mm 3 mps 748 mmHg 69%
09:00 +22°C° 0 mm 4 mps 748 mmHg 62%
10:00 +25°C° 0 mm 5 mps 748 mmHg 55%
11:00 +25°C° 0 mm 5 mps 747 mmHg 52%
12:00 +26°C° 0 mm 5 mps 747 mmHg 49%
13:00 +27°C° 0 mm 6 mps 747 mmHg 47%
14:00 +26°C° 0 mm 5 mps 747 mmHg 48%
15:00 +26°C° 0 mm 5 mps 747 mmHg 50%
16:00 +25°C° 0 mm 4 mps 746 mmHg 52%
17:00 +23°C° 0 mm 4 mps 747 mmHg 58%
18:00 +21°C° 0 mm 3 mps 747 mmHg 64%
19:00 +20°C° 0 mm 3 mps 747 mmHg 70%
20:00 +19°C° 0 mm 3 mps 747 mmHg 72%
21:00 +19°C° 0 mm 3 mps 748 mmHg 74%
22:00 +18°C° 0 mm 3 mps 748 mmHg 76%
23:00 +18°C° 0 mm 3 mps 748 mmHg 77%

24 September, Thursday

Time Temperature Precipitation Wind Pressure Humidity
00:00 +17°C° 0 mm 3 mps 748 mmHg 79%
01:00 +17°C° 0 mm 2 mps 748 mmHg 80%
02:00 +16°C° 0 mm 2 mps 748 mmHg 81%
03:00 +16°C° 0 mm 2 mps 748 mmHg 82%
04:00 +16°C° 0 mm 2 mps 748 mmHg 83%
05:00 +16°C° 0 mm 2 mps 748 mmHg 82%
06:00 +16°C° 0 mm 2 mps 748 mmHg 80%
07:00 +17°C° 0 mm 3 mps 748 mmHg 79%
08:00 +19°C° 0 mm 3 mps 748 mmHg 70%
09:00 +21°C° 0 mm 4 mps 748 mmHg 61%
10:00 +23°C° 0 mm 4 mps 748 mmHg 52%
11:00 +25°C° 0 mm 4 mps 747 mmHg 48%
12:00 +26°C° 0 mm 4 mps 747 mmHg 44%
13:00 +27°C° 0 mm 4 mps 746 mmHg 41%
14:00 +27°C° 0 mm 4 mps 745 mmHg 43%
15:00 +27°C° 0 mm 4 mps 745 mmHg 45%
16:00 +26°C° 0 mm 3 mps 744 mmHg 47%
17:00 +25°C° 0 mm 4 mps 743 mmHg 52%
18:00 +23°C° 0 mm 4 mps 743 mmHg 56%
19:00 +22°C° 0 mm 4 mps 742 mmHg 61%
20:00 +21°C° 0 mm 5 mps 741 mmHg 63%
21:00 +21°C° 0 mm 5 mps 741 mmHg 64%
22:00 +20°C° 0 mm 5 mps 740 mmHg 66%
23:00 +20°C° 0 mm 5 mps 740 mmHg 67%
Show more